Silver Bay, MN

12:16 AM CDT on August 18, 2017 (GMT -0500)
Silver Bay Municipal

Weather History for KBFW - January, 2013

Change the Weather History Date:

Sunday, January 6, 2013

  Actual Average Record
Temperature  
Mean Temperature 14 °F -  
Max Temperature 28 °F 19 °F 42 °F (2008)
Min Temperature 1 °F 2 °F -27 °F (2014)
Degree Days  
Heating Degree Days 50    
Moisture  
Dew Point 7 °F    
Average Humidity 67    
Maximum Humidity 85    
Minimum Humidity 43    
Precipitation  
Precipitation 0.00 in - - ()
Sea Level Pressure  
Sea Level Pressure 30.03 in    
Wind  
Wind Speed 4 mph (NNW)    
Max Wind Speed 9 mph    
Max Gust Speed 16 mph    
Visibility 10 miles    
Events Snow    
Averages and records for this station are not official NWS values.
T = Trace of Precipitation, MM = Missing Value Source: NWS Daily Summary

Daily Weather History Graph

Daily Weather History Graph

Search for Another Location

Airport or City:

Trip Planner

Search our weather history database for the weather conditions in past years. The results will help you decide how hot, cold, wet, or windy it might be!

Date:

Astronomy

Jan. 06, 2013 Rise Set
Actual Time 7:51 AM CST 4:31 PM CST
Civil Twilight 7:16 AM CST 5:07 PM CST
Nautical Twilight 6:38 AM CST 5:45 PM CST
Astronomical Twilight 6:01 AM CST 6:22 PM CST
Moon 1:57 AM CST (1/6) 12:06 PM CST (1/6)
Length of Visible Light 9h 50m
Length of Day
8h 40m
Waning Crescent, 33% of the Moon is Illuminated
Jan 6
Waning Crescent
Jan 11
New
Jan 18
First Quarter
Jan 26
Full
Feb 3
Last Quarter

Hourly Weather History & Observations

Time (CST) Temp. Windchill Dew Point Humidity Pressure Visibility Wind Dir Wind Speed Gust Speed Precip Events Conditions
12:13 AM 21.2 °F 16.4 °F 14.0 °F 74% 29.90 in 10.0 mi NNW 3.5 mph - N/A   Mostly Cloudy
12:33 AM 21.2 °F 16.4 °F 14.0 °F 74% 29.90 in 10.0 mi NNW 3.5 mph - N/A   Scattered Clouds
12:53 AM 21.2 °F 14.9 °F 14.0 °F 74% 29.90 in 10.0 mi NNW 4.6 mph - N/A   Scattered Clouds
1:14 AM 21.2 °F 14.9 °F 12.2 °F 68% 29.91 in 10.0 mi NNW 4.6 mph - N/A   Scattered Clouds
1:33 AM 21.2 °F 11.7 °F 12.2 °F 68% 29.91 in 10.0 mi NNW 8.1 mph - N/A   Mostly Cloudy
1:53 AM 21.2 °F 11.7 °F 12.2 °F 68% 29.92 in 10.0 mi NNW 8.1 mph - N/A   Overcast
2:13 AM 21.2 °F 11.7 °F 12.2 °F 68% 29.92 in 10.0 mi NNW 8.1 mph - N/A   Overcast
2:33 AM 21.2 °F 12.6 °F 12.2 °F 68% 29.93 in 10.0 mi NNW 6.9 mph - N/A   Overcast
2:53 AM 21.2 °F 11.7 °F 12.2 °F 68% 29.94 in 10.0 mi NNW 8.1 mph - N/A   Mostly Cloudy
3:13 AM 21.2 °F - 12.2 °F 68% 29.94 in 10.0 mi Calm Calm - N/A   Scattered Clouds
3:33 AM 19.4 °F 10.4 °F 12.2 °F 74% 29.95 in 10.0 mi NNW 6.9 mph - N/A   Scattered Clouds
3:53 AM 19.4 °F 10.4 °F 12.2 °F 74% 29.95 in 10.0 mi North 6.9 mph - N/A   Mostly Cloudy
4:13 AM 19.4 °F 14.3 °F 10.4 °F 68% 29.96 in 10.0 mi NNW 3.5 mph - N/A   Scattered Clouds
4:33 AM 19.4 °F 11.5 °F 10.4 °F 68% 29.97 in 10.0 mi NNW 5.8 mph - N/A   Clear
4:53 AM 19.4 °F 8.6 °F 10.4 °F 68% 29.97 in 10.0 mi North 9.2 mph 16.1 mph N/A   Scattered Clouds
5:13 AM 17.6 °F 8.2 °F 10.4 °F 73% 29.97 in 10.0 mi North 6.9 mph - N/A   Scattered Clouds
5:33 AM 17.6 °F 7.3 °F 10.4 °F 73% 29.98 in 10.0 mi NNW 8.1 mph - N/A   Scattered Clouds
5:53 AM 17.6 °F 9.3 °F 8.6 °F 68% 30.00 in 10.0 mi NNW 5.8 mph - N/A   Scattered Clouds
6:13 AM 17.6 °F - 8.6 °F 68% 30.01 in 10.0 mi Calm Calm - N/A   Scattered Clouds
6:33 AM 17.6 °F 9.3 °F 8.6 °F 68% 30.02 in 10.0 mi North 5.8 mph - N/A   Scattered Clouds
6:53 AM 15.8 °F 7.2 °F 6.8 °F 68% 30.03 in 10.0 mi North 5.8 mph - N/A   Clear
7:13 AM 15.8 °F 10.2 °F 6.8 °F 68% 30.04 in 10.0 mi North 3.5 mph - N/A   Clear
7:33 AM 15.8 °F 8.6 °F 6.8 °F 68% 30.05 in 10.0 mi North 4.6 mph - N/A   Clear
7:53 AM 15.8 °F 5.1 °F 6.8 °F 68% 30.06 in 10.0 mi North 8.1 mph - N/A   Clear
8:13 AM 15.8 °F 7.2 °F 6.8 °F 68% 30.07 in 10.0 mi NNW 5.8 mph - N/A   Clear
8:33 AM 17.6 °F - 8.6 °F 68% 30.07 in 10.0 mi Calm Calm - N/A   Scattered Clouds
8:53 AM 19.4 °F 11.5 °F 8.6 °F 63% 30.07 in 10.0 mi North 5.8 mph - N/A   Scattered Clouds
9:33 AM 19.4 °F 12.8 °F 8.6 °F 63% 30.09 in 10.0 mi NW 4.6 mph - N/A   Clear
9:53 AM 21.2 °F 13.6 °F 8.6 °F 58% 30.10 in 10.0 mi NW 5.8 mph - N/A Snow Light Snow
10:13 AM 21.2 °F 16.4 °F 8.6 °F 58% 30.10 in 10.0 mi NNW 3.5 mph - N/A Snow Light Snow
10:33 AM 23.0 °F 18.4 °F 6.8 °F 50% 30.09 in 10.0 mi NNE 3.5 mph - N/A   Clear
10:53 AM 24.8 °F - 8.6 °F 50% 30.10 in 10.0 mi Calm Calm - N/A   Clear
11:13 AM 24.8 °F 20.5 °F 6.8 °F 46% 30.10 in 10.0 mi NNW 3.5 mph - N/A   Clear
11:33 AM 24.8 °F - 6.8 °F 46% 30.10 in 10.0 mi Calm Calm - N/A   Clear
11:53 AM 24.8 °F - 6.8 °F 46% 30.09 in 10.0 mi Calm Calm - N/A   Clear
12:13 PM 24.8 °F - 6.8 °F 46% 30.09 in 10.0 mi Calm Calm - N/A   Clear
12:33 PM 26.6 °F - 8.6 °F 47% 30.09 in 10.0 mi Calm Calm - N/A   Clear
12:53 PM 28.4 °F - 8.6 °F 43% 30.08 in 10.0 mi Calm Calm - N/A   Clear
1:13 PM 28.4 °F - 8.6 °F 43% 30.07 in 10.0 mi Calm Calm - N/A   Clear
1:33 PM 26.6 °F - 6.8 °F 43% 30.07 in 10.0 mi Calm Calm - N/A   Clear
1:53 PM 26.6 °F - 6.8 °F 43% 30.08 in 10.0 mi Calm Calm - N/A   Clear
2:13 PM 24.8 °F 17.9 °F 8.6 °F 50% 30.09 in 10.0 mi South 5.8 mph - N/A   Clear
2:53 PM 21.2 °F 13.6 °F 10.4 °F 63% 30.09 in 10.0 mi South 5.8 mph - N/A   Clear
3:13 PM 23.0 °F 18.4 °F 10.4 °F 59% 30.09 in 10.0 mi SSW 3.5 mph - N/A   Clear
3:33 PM 21.2 °F 12.6 °F 10.4 °F 63% 30.09 in 10.0 mi South 6.9 mph - N/A   Clear
3:53 PM 21.2 °F 14.9 °F 10.4 °F 63% 30.10 in 10.0 mi South 4.6 mph - N/A   Clear
4:13 PM 19.4 °F 10.4 °F 10.4 °F 68% 30.09 in 10.0 mi SSW 6.9 mph - N/A   Clear
4:53 PM 15.8 °F 8.6 °F 8.6 °F 73% 30.09 in 10.0 mi SW 4.6 mph - N/A   Clear
5:13 PM 14.0 °F - 6.8 °F 73% 30.09 in 10.0 mi Calm Calm - N/A   Clear
5:33 PM 12.2 °F - 6.8 °F 79% 30.08 in 10.0 mi Calm Calm - N/A   Clear
5:53 PM 12.2 °F - 6.8 °F 79% 30.07 in 10.0 mi Calm Calm - N/A   Clear
6:13 PM 10.4 °F - 6.8 °F 85% 30.07 in 10.0 mi Calm Calm - N/A   Clear
6:33 PM 10.4 °F - 5.0 °F 79% 30.06 in 10.0 mi Calm Calm - N/A   Clear
6:53 PM 8.6 °F - 3.2 °F 79% 30.05 in 10.0 mi Calm Calm - N/A   Clear
7:33 PM 6.8 °F - 1.4 °F 79% 30.05 in 10.0 mi Calm Calm - N/A   Clear
7:53 PM 6.8 °F - 1.4 °F 79% 30.04 in 10.0 mi Calm Calm - N/A   Clear
8:13 PM 6.8 °F - 1.4 °F 79% 30.05 in 10.0 mi Calm Calm - N/A   Clear
8:33 PM 5.0 °F - -0.4 °F 78% 30.03 in 10.0 mi Calm Calm - N/A   Clear
8:53 PM 5.0 °F - -0.4 °F 78% 30.04 in 10.0 mi Calm Calm - N/A   Clear
9:53 PM 1.4 °F - -2.2 °F 85% 30.01 in 10.0 mi Calm Calm - N/A   Clear
10:13 PM 1.4 °F - -2.2 °F 85% 30.00 in 10.0 mi Calm Calm - N/A   Clear
10:33 PM 1.4 °F - -5.8 °F 72% 29.99 in 10.0 mi Calm Calm - N/A   Clear
10:53 PM 1.4 °F - -4.0 °F 78% 29.98 in 10.0 mi Calm Calm - N/A   Clear
11:33 PM 1.4 °F - -4.0 °F 78% 29.95 in 10.0 mi Calm Calm - N/A   Clear
11:53 PM 1.4 °F - -2.2 °F 85% 29.93 in 10.0 mi Calm Calm - N/A   Clear